Wind_Speed
18 17 21 20 18 17 19 24 29 27 19 16 19 39 40 34 34 39 38 44 60 57 52 67 76 74 75 69 59 54 49 43 47 51 42 47 52 53 51 53 59 62 63
18 17 22 17 12 12 23 20 26 29 30 24 21 39 37 34 38 45 44 41 61 52 45 61 73 60 68 65 57 55 56 55 55 53 56 56 53 51 51 53 53 59 65
20 19 24 18 11 17 20 20 15 23 29 28 24 28 32 36 46 39 46 38 62 60 58 56 68 53 59 59 62 50 48 52 60 64 58 58 56 57 59 62 65 65 65
4 21 19 15 14 14 20 21 16 17 21 26 30 25 31 43 31 36 45 43 51 60 58 58 60 56 54 60 65 64 56 54 47 48 64 69 58 63 68 67 68 68 74
3 25 22 18 16 17 19 19 14 14 17 20 26 24 25 36 39 42 49 57 57 64 60 61 58 48 41 53 59 74 58 60 61 50 49 53 61 65 67 75 81 79 82
4 14 26 22 16 15 15 18 12 8 13 16 18 19 25 24 42 43 43 57 65 68 64 64 58 51 48 53 56 57 55 54 58 51 63 65 73 73 72 75 73 74 68
4 1 25 25 24 18 17 20 16 9 9 13 15 16 16 18 19 46 50 50 53 48 47 65 64 61 59 55 58 58 61 63 68 74 73 74 76 79 74 71 72 69 75
2 2 15 24 24 22 25 21 23 17 17 14 13 14 14 9 17 18 42 53 56 55 55 55 61 59 59 59 57 60 61 64 61 63 65 66 67 70 68 71 76 77 72
5 3 5 15 16 16 19 15 24 22 19 20 19 18 18 18 16 22 21 32 49 52 55 52 51 56 57 57 54 58 57 62 64 65 63 64 65 68 71 70 64 61 63
7 10 8 7 13 16 17 19 18 20 19 18 18 22 21 21 25 19 19 29 29 44 50 51 46 47 48 47 50 55 56 53 52 52 55 58 59 60 59 57 58 58 60
9 9 10 13 10 9 13 15 18 17 20 19 20 20 22 21 23 26 27 27 26 28 31 38 44 42 41 42 43 46 51 56 61 61 59 57 55 54 55 56 60 62 65
13 12 11 11 15 16 15 13 13 13 14 16 18 18 18 20 21 24 26 29 31 32 38 40 39 40 41 43 46 50 50 49 48 47 49 50 51 54 57 60 65 68 69
12 15 15 15 13 14 16 20 19 17 16 17 17 18 18 19 20 20 22 23 24 26 28 30 30 31 31 32 34 37 40 41 43 44 47 50 53 57 61 65 66 65 66
15 14 17 17 17 16 15 15 16 17 18 16 16 16 17 20 24 26 26 27 27 28 30 30 30 32 34 34 37 38 38 38 42 45 48 52 55 59 63 66 64 68 71
16 16 15 18 19 20 20 19 18 18 18 17 17 16 16 17 17 19 24 27 26 26 28 30 32 33 31 31 31 33 37 40 42 43 50 54 58 59 62 66 69 72 75
20 21 18 17 17 17 18 19 21 22 22 21 21 20 21 21 21 22 24 25 26 26 25 26 26 27 29 32 34 34 38 39 40 46 49 51 54 56 60 65 66 70 74
23 22 20 18 18 18 20 18 17 19 21 21 20 20 23 24 24 24 25 25 24 25 26 28 30 33 33 33 33 29 29 35 44 53 54 56 53 56 61 67 72 76 80
28 24 22 23 24 23 21 21 21 21 21 21 20 20 20 20 21 21 23 24 25 28 30 31 32 32 31 30 31 35 39 43 50 54 62 64 65 69 73 77 81 87 88
31 31 31 26 26 23 22 25 25 25 23 23 24 25 26 27 26 28 30 31 32 33 32 31 29 30 31 32 36 39 46 50 56 61 66 67 68 70 74 78 81 89 90
34 36 35 35 31 27 25 25 24 25 26 28 31 32 31 27 31 31 31 31 32 33 33 34 34 37 40 43 47 52 59 64 68 72 73 75 73 77 82 88 89 97 101
38 36 36 36 34 33 30 31 30 28 25 24 25 33 29 31 35 33 34 33 33 34 37 39 39 42 46 51 55 61 65 70 75 74 77 78 83 89 92 95 102 102 96
43 40 34 35 36 37 35 36 34 35 33 29 30 37 36 35 38 36 34 34 35 36 38 40 42 47 52 56 63 67 73 74 77 79 81 83 89 96 100 104 101 92 100
46 44 41 42 36 34 37 39 37 38 36 36 38 44 41 37 35 32 35 35 37 38 40 45 52 60 61 64 67 69 73 78 78 78 83 91 99 101 105 102 98 109 116
49 52 52 50 45 39 36 38 40 41 38 41 45 45 44 43 43 41 42 42 45 47 51 54 60 64 69 72 72 78 82 82 83 88 89 96 101 105 104 108 115 122 128
46 47 47 43 42 42 46 42 46 49 48 45 46 46 44 46 48 52 56 55 55 56 59 63 61 63 71 74 75 80 84 86 89 91 94 101 106 109 113 117 120 126 126
50 47 46 43 43 44 44 43 43 44 47 48 46 47 50 52 53 54 55 58 58 59 60 65 67 68 72 76 82 83 84 89 94 97 100 105 108 115 117 121 126 128 128
Wind_Direction
156 137 143 144 128 108 88 73 69 66 108 103 124 133 130 135 141 142 127 140 153 150 160 168 162 170 178 180 190 205 207 200 213 215 226 224 232 238 241 247 246 250 254
169 148 147 145 141 102 112 97 77 75 77 97 115 142 137 140 147 147 143 144 159 146 150 164 170 172 182 195 195 208 214 221 222 221 226 233 238 238 241 244 256 258 259
180 160 141 150 146 121 110 98 85 88 80 84 113 151 154 146 151 158 158 154 168 161 156 170 175 181 189 193 201 201 210 218 220 222 230 230 239 240 244 250 256 262 267
190 179 179 160 173 162 134 115 107 100 95 89 91 121 160 164 164 156 165 164 168 169 170 173 178 185 188 201 208 209 217 212 223 227 233 236 241 247 251 254 256 265 267
1 189 187 182 183 175 159 143 132 119 101 106 96 98 138 173 172 173 175 171 170 182 182 177 180 184 201 205 213 212 220 222 229 239 240 244 244 251 251 252 256 263 272
1 194 189 183 184 184 187 182 161 158 136 108 113 104 96 145 182 177 176 183 182 188 189 187 190 195 211 216 218 222 227 232 233 243 245 252 252 254 257 264 273 277 281
30 153 191 188 188 203 193 188 181 181 165 156 130 122 126 122 150 189 186 186 187 188 198 196 200 203 213 214 222 227 232 236 244 247 247 252 254 262 266 267 274 277 279
97 71 197 201 207 220 215 211 205 218 206 199 190 161 153 146 139 161 197 196 192 193 192 201 206 213 221 231 236 240 241 244 249 249 255 260 263 271 272 276 279 277 281
193 176 193 200 206 223 212 216 219 224 229 218 211 187 183 182 181 161 184 190 207 207 210 213 217 219 223 230 241 244 253 255 253 261 270 270 270 271 272 275 280 284 285
229 214 208 212 220 217 217 223 232 233 232 225 212 205 206 206 201 201 198 192 198 210 219 222 227 235 241 249 251 252 253 257 260 262 264 266 272 281 284 282 282 281 281
243 235 224 218 211 222 223 231 237 239 228 226 219 217 215 216 211 210 211 217 223 226 227 229 230 239 242 248 254 255 257 261 263 267 271 278 280 277 278 278 280 282 284
257 248 243 233 225 217 220 228 230 227 228 229 224 219 218 219 222 225 225 225 224 227 231 235 239 242 245 250 253 256 260 263 267 272 273 274 274 276 279 282 283 286 290
262 258 250 250 243 246 238 232 232 234 238 240 241 237 230 223 221 222 219 220 226 231 234 236 244 249 250 254 259 262 264 270 273 274 276 279 281 284 286 286 289 291 292
260 261 260 255 254 253 253 249 243 243 243 241 240 241 242 242 240 235 232 233 239 245 246 246 247 250 256 258 261 264 271 276 280 285 289 290 289 288 291 294 295 293 293
247 246 254 260 258 260 261 261 257 256 254 255 253 250 250 249 249 244 240 241 243 245 247 251 256 260 264 271 276 279 283 286 291 298 300 299 299 298 300 301 297 293 292
239 244 236 245 251 252 261 269 267 263 261 260 260 260 258 255 252 252 251 250 253 256 259 263 268 269 272 278 285 295 297 302 311 312 307 303 304 304 303 302 303 304 303
245 242 244 238 243 248 253 257 260 264 261 258 258 258 258 258 261 261 261 263 266 267 268 271 274 279 286 291 293 296 301 304 308 320 321 319 315 309 303 304 303 307 307
245 246 245 245 245 248 259 263 262 259 262 266 264 261 262 260 259 261 262 264 265 268 270 273 277 282 282 283 288 296 307 310 309 310 313 313 310 306 305 308 307 306 308
245 247 244 249 254 254 259 258 257 261 264 266 266 267 264 266 265 264 266 269 272 274 275 278 279 277 282 281 294 299 304 308 311 313 316 315 310 308 307 307 308 313 312
249 252 248 247 249 248 254 260 260 262 263 264 264 264 270 272 271 273 273 274 273 272 277 279 280 279 282 284 287 296 303 309 311 313 314 313 308 306 309 311 311 311 311
254 253 251 248 246 247 253 255 258 262 267 263 266 271 267 274 275 277 275 274 275 278 281 286 290 289 290 294 294 297 299 302 311 312 311 302 301 306 310 311 312 314 312
252 251 251 253 249 252 255 255 255 259 260 256 261 267 277 278 277 277 277 276 279 281 285 286 290 292 293 295 301 305 308 312 314 311 304 303 305 310 312 313 315 309 305
246 247 250 256 260 258 252 250 254 259 263 257 258 266 266 275 272 273 273 276 278 281 285 288 294 300 301 305 304 307 309 311 309 306 304 306 308 311 313 312 306 306 306
246 247 252 256 258 261 249 246 250 260 250 262 268 268 269 266 268 271 273 277 282 287 293 297 301 305 309 308 305 307 309 310 307 303 302 306 309 309 308 305 304 307 309
250 249 247 248 250 253 253 251 249 255 265 269 269 273 275 270 269 268 273 277 283 289 292 297 300 304 304 302 303 304 301 300 304 306 303 304 305 303 303 306 307 307 308
242 243 243 245 245 252 254 254 255 263 268 266 265 268 268 265 266 271 276 280 285 288 298 297 298 297 298 297 301 300 298 300 301 301 302 302 301 303 305 305 306 308 310
Height
10644 10644 10646 10648 10648 10648 10648 10645 10640 10637 10633 10634 10636 10637 10637 10640 10644 10648 10653 10658 10663 10673 10681 10691 10703 10715 10723 10731 10738 10744 10752 10757 10761 10764 10767 10768 10768 10769 10772 10773 10773 10773 10769
10644 10647 10648 10650 10650 10650 10651 10651 10648 10645 10641 10639 10641 10644 10645 10648 10652 10655 10660 10665 10673 10681 10690 10700 10706 10716 10725 10731 10738 10743 10748 10752 10755 10758 10760 10761 10765 10764 10764 10763 10760 10760 10759
10644 10647 10648 10651 10653 10653 10653 10654 10654 10652 10649 10646 10646 10648 10651 10655 10658 10662 10667 10672 10679 10684 10692 10701 10712 10720 10724 10731 10735 10740 10745 10748 10749 10752 10756 10758 10759 10757 10756 10755 10755 10752 10749
10642 10646 10649 10651 10654 10655 10655 10657 10657 10658 10657 10656 10652 10653 10657 10661 10664 10668 10674 10679 10685 10691 10697 10705 10713 10719 10724 10729 10733 10737 10738 10738 10742 10747 10749 10749 10749 10749 10749 10745 10746 10744 10741
10640 10643 10648 10652 10654 10657 10658 10658 10660 10662 10662 10661 10661 10660 10660 10666 10670 10675 10679 10683 10689 10696 10700 10707 10712 10716 10720 10723 10726 10732 10734 10736 10738 10741 10740 10740 10741 10741 10741 10740 10738 10735 10733
10639 10641 10646 10651 10654 10657 10660 10661 10661 10663 10665 10667 10666 10668 10670 10670 10673 10678 10682 10686 10690 10695 10702 10706 10709 10713 10717 10720 10723 10726 10730 10735 10735 10735 10737 10736 10737 10734 10732 10732 10729 10725 10722
10639 10640 10644 10649 10653 10657 10659 10662 10663 10665 10667 10669 10671 10672 10674 10677 10678 10682 10686 10690 10695 10700 10703 10707 10710 10712 10715 10717 10721 10724 10727 10729 10730 10730 10730 10728 10725 10726 10725 10721 10719 10713 10705
10640 10641 10643 10648 10652 10655 10658 10661 10663 10665 10668 10671 10672 10675 10677 10679 10681 10683 10686 10691 10696 10700 10704 10708 10711 10715 10718 10720 10722 10723 10723 10723 10723 10721 10720 10718 10718 10717 10712 10707 10704 10697 10690
10641 10642 10644 10647 10650 10653 10657 10659 10661 10663 10666 10670 10673 10675 10678 10680 10683 10686 10689 10693 10698 10702 10704 10707 10710 10713 10714 10716 10718 10718 10718 10717 10714 10712 10711 10709 10706 10701 10698 10694 10689 10682 10676
10641 10642 10644 10646 10648 10651 10654 10657 10660 10662 10664 10667 10670 10673 10676 10679 10681 10683 10687 10691 10694 10698 10701 10705 10707 10709 10710 10710 10708 10708 10706 10704 10702 10701 10699 10696 10692 10688 10684 10679 10675 10671 10664
10640 10642 10643 10645 10647 10649 10651 10654 10657 10659 10663 10665 10668 10670 10673 10675 10678 10682 10684 10687 10689 10691 10694 10697 10698 10700 10701 10700 10698 10696 10694 10693 10691 10689 10686 10684 10682 10678 10673 10666 10660 10656 10650
10639 10640 10642 10644 10645 10647 10649 10651 10654 10656 10658 10661 10664 10666 10669 10671 10674 10676 10678 10680 10682 10684 10686 10687 10688 10689 10690 10689 10686 10685 10684 10682 10681 10681 10679 10675 10670 10664 10658 10653 10646 10638 10631
10637 10639 10640 10642 10643 10645 10647 10648 10651 10653 10655 10657 10660 10662 10664 10666 10668 10669 10670 10672 10673 10675 10677 10678 10680 10680 10680 10679 10678 10676 10675 10675 10674 10670 10666 10661 10656 10652 10644 10639 10631 10624 10616
10634 10636 10638 10639 10641 10642 10644 10646 10647 10649 10651 10653 10655 10657 10659 10660 10662 10664 10665 10666 10668 10669 10670 10671 10672 10672 10673 10673 10672 10671 10669 10665 10661 10657 10654 10648 10643 10636 10630 10624 10616 10607 10599
10632 10632 10634 10636 10638 10639 10641 10643 10644 10645 10647 10648 10650 10652 10653 10654 10656 10658 10660 10661 10662 10663 10664 10664 10665 10665 10665 10664 10662 10660 10657 10654 10651 10648 10642 10635 10629 10622 10614 10606 10598 10590 10580
10628 10629 10630 10633 10634 10636 10637 10639 10641 10642 10643 10643 10644 10646 10647 10648 10650 10651 10652 10654 10655 10656 10656 10656 10656 10656 10655 10653 10651 10652 10647 10642 10640 10634 10627 10620 10613 10606 10597 10589 10581 10572 10563
10622 10625 10628 10628 10630 10632 10633 10635 10637 10639 10640 10640 10641 10641 10641 10644 10645 10645 10645 10646 10648 10648 10648 10648 10647 10646 10645 10644 10641 10640 10636 10631 10627 10620 10612 10605 10597 10589 10581 10573 10564 10553 10541
10617 10619 10622 10624 10625 10627 10629 10631 10632 10633 10635 10637 10638 10638 10638 10638 10639 10639 10639 10640 10640 10640 10639 10639 10638 10636 10634 10632 10629 10625 10623 10618 10612 10605 10598 10590 10581 10572 10563 10554 10544 10532 10519
10611 10613 10614 10617 10619 10621 10623 10625 10626 10627 10629 10630 10631 10632 10632 10632 10633 10631 10631 10631 10630 10630 10629 10627 10627 10624 10621 10619 10615 10612 10607 10602 10596 10589 10581 10573 10565 10555 10546 10537 10525 10512 10499
10602 10604 10607 10609 10612 10614 10615 10617 10619 10621 10622 10624 10622 10622 10624 10626 10624 10623 10623 10622 10621 10620 10618 10616 10615 10612 10609 10606 10603 10598 10592 10587 10580 10572 10564 10555 10544 10535 10526 10515 10502 10491 10478
10593 10597 10598 10601 10603 10604 10606 10609 10611 10613 10614 10616 10617 10612 10618 10617 10615 10615 10613 10611 10610 10610 10607 10605 10604 10602 10599 10595 10591 10586 10579 10572 10563 10554 10546 10535 10526 10516 10504 10494 10483 10467 10451
10583 10587 10589 10591 10593 10596 10598 10599 10602 10604 10606 10608 10610 10605 10607 10609 10605 10606 10604 10602 10600 10598 10597 10595 10593 10590 10586 10581 10575 10569 10561 10554 10545 10535 10525 10516 10506 10494 10483 10472 10458 10445 10433
10573 10576 10579 10581 10584 10587 10588 10590 10592 10594 10595 10598 10600 10595 10598 10599 10596 10596 10593 10592 10590 10589 10586 10583 10580 10575 10571 10564 10557 10550 10544 10535 10527 10516 10507 10497 10487 10475 10462 10449 10437 10424 10411
10561 10564 10568 10571 10574 10575 10577 10579 10581 10583 10584 10588 10587 10585 10587 10587 10585 10584 10582 10580 10578 10576 10573 10568 10563 10557 10550 10545 10539 10532 10522 10515 10508 10499 10489 10479 10465 10456 10444 10431 10416 10400 10382
10549 10553 10556 10560 10562 10564 10566 10568 10569 10571 10571 10575 10574 10574 10576 10575 10572 10571 10570 10568 10565 10563 10559 10555 10549 10543 10537 10530 10524 10518 10510 10500 10491 10482 10472 10461 10448 10434 10420 10406 10392 10374 10355
10537 10541 10544 10547 10549 10552 10555 10556 10557 10559 10560 10561 10562 10561 10561 10560 10559 10559 10557 10554 10552 10548 10543 10539 10535 10530 10523 10515 10507 10499 10491 10482 10474 10464 10455 10441 10425 10410 10397 10381 10364 10346 10328